This is the latest recevied weather packets stored in our database for station/object W8AN. If no packets are shown the sender has not sent any weather packets the latest 10 day(s).
| Time | Temp. | Humidity | Pressure | Rain* | Wind** | Luminosity | Snow |
|---|---|---|---|---|---|---|---|
| 1777722541 | 2.78° C | 82% | 4272.3 hPa | 0 mm | - | 46 W/m² | - |
| 1777722238 | 2.22° C | 82% | 4272.4 hPa | 0 mm | - | 42 W/m² | - |
| 1777721935 | 2.22° C | 82% | 4272.3 hPa | 0 mm | - | 35 W/m² | - |
| 1777721633 | 2.22° C | 82% | 4272.3 hPa | 0 mm | - | 31 W/m² | - |
| 1777721331 | 2.22° C | 82% | 4272.3 hPa | 0 mm | - | 32 W/m² | - |
| 1777721028 | 2.22° C | 82% | 4272.4 hPa | 0 mm | - | 30 W/m² | - |
| 1777720725 | 2.22° C | 82% | 4272.2 hPa | 0 mm | - | 27 W/m² | - |
| 1777720423 | 2.22° C | 82% | 4272.2 hPa | 0 mm | - | 24 W/m² | - |
| 1777720120 | 2.22° C | 82% | 4272.2 hPa | 0 mm | - | 21 W/m² | - |
| 1777719818 | 2.22° C | 82% | 4272.2 hPa | 0 mm | - | 18 W/m² | - |
| 1777719515 | 2.22° C | 82% | 4272.2 hPa | 0 mm | - | 16 W/m² | - |
| 1777719212 | 2.78° C | 81% | 4272.2 hPa | 0 mm | - | 13 W/m² | - |
| 1777718910 | 2.22° C | 81% | 4272.2 hPa | 0 mm | - | 10 W/m² | - |
| 1777718607 | 2.22° C | 81% | 4272 hPa | 0 mm | - | 6 W/m² | - |
| 1777718304 | 3.33° C | 82% | 4272.1 hPa | 0 mm | - | 3 W/m² | - |
| 1777718001 | 3.33° C | 81% | 4272.1 hPa | 0 mm | - | 1 W/m² | - |
| 1777717699 | 3.33° C | 81% | 4271.9 hPa | 0 mm | - | 0 W/m² | - |
| 1777717395 | 3.33° C | 81% | 4271.8 hPa | 0 mm | - | 0 W/m² | - |
| 1777717093 | 3.33° C | 81% | 4271.8 hPa | 0 mm | - | 0 W/m² | - |
| 1777716791 | 3.33° C | 80% | 4271.8 hPa | 0 mm | - | 0 W/m² | - |
| 1777716489 | 3.33° C | 80% | 4271.9 hPa | 0 mm | - | 0 W/m² | - |
| 1777716188 | 3.33° C | 80% | 4271.8 hPa | 0 mm | - | 0 W/m² | - |
| 1777715885 | 3.33° C | 79% | 4272.1 hPa | 0 mm | - | 0 W/m² | - |
| 1777715582 | 2.78° C | 79% | 4271.9 hPa | 0 mm | - | 0 W/m² | - |
| 1777715280 | 2.78° C | 79% | 4271.9 hPa | 0 mm | - | 0 W/m² | - |
* Rain latest hour (hover to see other rain measurements)
** Current wind speed in m/s (hover to see current wind gust speed)